AEE8RD LGAV-LGRP

Flight info

Callsign AEE8RD
Flight time 0h 43m
Altitude 31000
Route KEA1H KEA UL995 CODIC CODIC1K
Aircraft A320/M-SDE2GHIJ1RTWY/SB1

Departure

Time 2026-05-03 20:27
Airport Athens Eleftherios Venizelos International Airport (LGAV)

Arrival

Time 2026-05-03 21:10
Airport Rhodes International Airport "Diagoras" (LGRP)
Time Latitude Longitude Altitude Speed Heading
2026-05-03 20:15 37.93769 23.95133 287 ft 0 kts 217°
2026-05-03 20:17 37.93768 23.95132 287 ft 1 kts 217°
2026-05-03 20:17 37.93728 23.95108 287 ft 7 kts 174°
2026-05-03 20:17 37.93677 23.95149 287 ft 9 kts 175°
2026-05-03 20:17 37.93613 23.95103 287 ft 11 kts 217°
2026-05-03 20:18 37.93545 23.95039 287 ft 13 kts 217°
2026-05-03 20:18 37.93469 23.94965 287 ft 14 kts 217°
2026-05-03 20:18 37.93388 23.94887 287 ft 15 kts 218°
2026-05-03 20:18 37.93300 23.94803 287 ft 16 kts 217°
2026-05-03 20:19 37.93207 23.94715 287 ft 17 kts 217°
2026-05-03 20:19 37.93111 23.94625 287 ft 17 kts 217°
2026-05-03 20:19 37.93010 23.94530 287 ft 18 kts 217°
2026-05-03 20:19 37.92920 23.94447 287 ft 12 kts 216°
2026-05-03 20:20 37.92879 23.94375 287 ft 11 kts 276°
2026-05-03 20:20 37.92923 23.94288 287 ft 12 kts 307°
2026-05-03 20:20 37.92977 23.94196 287 ft 13 kts 306°
2026-05-03 20:20 37.93035 23.94099 287 ft 14 kts 307°
2026-05-03 20:21 37.93096 23.93996 288 ft 14 kts 308°
2026-05-03 20:21 37.93162 23.93890 287 ft 15 kts 307°
2026-05-03 20:21 37.93227 23.93780 287 ft 15 kts 307°
2026-05-03 20:21 37.93295 23.93666 287 ft 16 kts 307°
2026-05-03 20:22 37.93364 23.93550 287 ft 16 kts 307°
2026-05-03 20:22 37.93426 23.93444 287 ft 10 kts 305°
2026-05-03 20:22 37.93409 23.93367 287 ft 11 kts 217°
2026-05-03 20:22 37.93325 23.93288 287 ft 20 kts 217°
2026-05-03 20:23 37.93195 23.93165 287 ft 23 kts 217°
2026-05-03 20:23 37.93067 23.93043 287 ft 23 kts 217°
2026-05-03 20:23 37.92939 23.92921 287 ft 22 kts 217°
2026-05-03 20:23 37.92812 23.92800 287 ft 22 kts 218°
2026-05-03 20:24 37.92686 23.92681 287 ft 22 kts 217°
2026-05-03 20:24 37.92563 23.92565 287 ft 22 kts 218°
2026-05-03 20:24 37.92439 23.92447 287 ft 22 kts 217°
2026-05-03 20:24 37.92316 23.92330 287 ft 22 kts 217°
2026-05-03 20:25 37.92197 23.92216 287 ft 19 kts 217°
2026-05-03 20:25 37.92110 23.92126 287 ft 11 kts 242°
2026-05-03 20:25 37.92134 23.92031 287 ft 12 kts 305°
2026-05-03 20:25 37.92186 23.91948 287 ft 8 kts 329°
2026-05-03 20:26 37.92229 23.91970 287 ft 4 kts 39°
2026-05-03 20:26 37.92316 23.92050 287 ft 43 kts 37°
2026-05-03 20:26 37.92756 23.92469 287 ft 111 kts 37°
2026-05-03 20:26 37.93527 23.93209 303 ft 164 kts 36°
2026-05-03 20:27 37.94443 23.94106 901 ft 164 kts 34°
2026-05-03 20:27 37.95318 23.94931 1778 ft 154 kts 30°
2026-05-03 20:27 37.96150 23.95667 2503 ft 152 kts 30°
2026-05-03 20:27 37.97065 23.96465 2984 ft 168 kts 30°
2026-05-03 20:28 37.98085 23.97342 3433 ft 189 kts 30°
2026-05-03 20:28 37.99223 23.98356 3949 ft 210 kts 32°
2026-05-03 20:28 38.00425 23.99469 4664 ft 221 kts 33°
2026-05-03 20:28 38.01665 24.00625 5618 ft 223 kts 33°
2026-05-03 20:29 38.02896 24.01773 6586 ft 223 kts 33°
2026-05-03 20:29 38.04143 24.02933 7480 ft 226 kts 34°
2026-05-03 20:29 38.05312 24.04341 8061 ft 245 kts 50°
2026-05-03 20:29 38.05920 24.06451 8647 ft 272 kts 80°
2026-05-03 20:30 38.05580 24.08857 9435 ft 291 kts 110°
2026-05-03 20:30 38.04338 24.10924 10233 ft 302 kts 129°
2026-05-03 20:30 38.02887 24.12863 10805 ft 313 kts 129°
2026-05-03 20:30 38.01356 24.14943 11184 ft 331 kts 129°
2026-05-03 20:31 37.99746 24.17149 11642 ft 344 kts 129°
2026-05-03 20:31 37.98114 24.19387 12315 ft 349 kts 129°
2026-05-03 20:31 37.96486 24.21620 13013 ft 351 kts 129°
2026-05-03 20:31 37.94821 24.23907 13684 ft 355 kts 130°
2026-05-03 20:32 37.93195 24.26252 14335 ft 357 kts 125°
2026-05-03 20:32 37.91697 24.28760 14989 ft 360 kts 122°
2026-05-03 20:32 37.90225 24.31320 15620 ft 363 kts 122°
2026-05-03 20:32 37.88735 24.33912 16240 ft 367 kts 122°
2026-05-03 20:33 37.87222 24.36521 16843 ft 370 kts 122°
2026-05-03 20:33 37.85691 24.39142 17428 ft 374 kts 122°
2026-05-03 20:33 37.84142 24.41781 18011 ft 377 kts 123°
2026-05-03 20:33 37.82554 24.44477 18580 ft 380 kts 123°
2026-05-03 20:34 37.80989 24.47129 19131 ft 384 kts 123°
2026-05-03 20:34 37.79388 24.49836 19704 ft 386 kts 123°
2026-05-03 20:34 37.77781 24.52550 20278 ft 388 kts 123°
2026-05-03 20:34 37.76162 24.55282 20824 ft 391 kts 123°
2026-05-03 20:35 37.74513 24.58062 21385 ft 393 kts 123°
2026-05-03 20:35 37.72887 24.60799 21912 ft 396 kts 123°
2026-05-03 20:35 37.71240 24.63572 22421 ft 398 kts 124°
2026-05-03 20:35 37.69560 24.66398 22912 ft 400 kts 125°
2026-05-03 20:36 37.67907 24.69174 23078 ft 400 kts 125°
2026-05-03 20:36 37.66235 24.71975 23078 ft 400 kts 125°
2026-05-03 20:36 37.64563 24.74775 23074 ft 399 kts 125°
2026-05-03 20:36 37.62883 24.77588 23074 ft 402 kts 125°
2026-05-03 20:37 37.61197 24.80411 23070 ft 403 kts 125°
2026-05-03 20:37 37.59529 24.83201 23065 ft 403 kts 125°
2026-05-03 20:37 37.57846 24.86011 23071 ft 403 kts 125°
2026-05-03 20:37 37.56140 24.88859 23306 ft 408 kts 125°
2026-05-03 20:38 37.54433 24.91714 23900 ft 407 kts 126°
2026-05-03 20:38 37.52746 24.94527 24436 ft 408 kts 125°
2026-05-03 20:38 37.51031 24.97381 24834 ft 410 kts 126°
2026-05-03 20:38 37.49300 25.00262 25213 ft 413 kts 126°
2026-05-03 20:39 37.47567 25.03142 25585 ft 417 kts 125°
2026-05-03 20:39 37.45804 25.06071 25922 ft 420 kts 126°
2026-05-03 20:39 37.43986 25.09088 26268 ft 424 kts 125°
2026-05-03 20:39 37.42182 25.12077 26597 ft 427 kts 125°
2026-05-03 20:40 37.40398 25.15033 26921 ft 431 kts 125°
2026-05-03 20:40 37.38588 25.18032 27237 ft 434 kts 125°
2026-05-03 20:40 37.36757 25.21063 27557 ft 437 kts 125°
2026-05-03 20:40 37.34914 25.24110 27882 ft 440 kts 125°
2026-05-03 20:41 37.33064 25.27164 28170 ft 443 kts 125°
2026-05-03 20:41 37.31203 25.30233 28423 ft 446 kts 124°
2026-05-03 20:41 37.29359 25.33422 28676 ft 447 kts 121°
2026-05-03 20:41 37.27723 25.36741 28929 ft 449 kts 116°
2026-05-03 20:42 37.26298 25.40215 29226 ft 448 kts 111°
2026-05-03 20:42 37.25082 25.43796 29580 ft 446 kts 108°
2026-05-03 20:42 37.23937 25.47407 29855 ft 448 kts 108°
2026-05-03 20:42 37.22805 25.50995 30077 ft 451 kts 108°
2026-05-03 20:43 37.21612 25.54660 30296 ft 454 kts 109°
2026-05-03 20:43 37.20396 25.58323 30548 ft 457 kts 109°
2026-05-03 20:43 37.19164 25.62007 30746 ft 459 kts 109°
2026-05-03 20:43 37.17937 25.65677 30961 ft 461 kts 110°
2026-05-03 20:44 37.16696 25.69386 30991 ft 462 kts 110°
2026-05-03 20:44 37.14213 25.76805 31011 ft 462 kts 110°
2026-05-03 20:45 37.11737 25.84183 30999 ft 461 kts 110°
2026-05-03 20:45 37.09262 25.91552 30980 ft 460 kts 110°
2026-05-03 20:46 37.06785 25.98911 30982 ft 460 kts 110°
2026-05-03 20:46 37.04301 26.06267 30986 ft 460 kts 110°
2026-05-03 20:47 37.01819 26.13607 30966 ft 460 kts 110°
2026-05-03 20:47 36.99311 26.21001 30963 ft 460 kts 110°
2026-05-03 20:48 36.96824 26.28322 30966 ft 460 kts 110°
2026-05-03 20:48 36.94336 26.35663 30957 ft 461 kts 110°
2026-05-03 20:49 36.91837 26.43031 30957 ft 461 kts 110°
2026-05-03 20:49 36.89321 26.50421 30790 ft 461 kts 110°
2026-05-03 20:49 36.88077 26.54058 30369 ft 458 kts 110°
2026-05-03 20:50 36.86818 26.57728 29946 ft 454 kts 110°
2026-05-03 20:50 36.85588 26.61316 29568 ft 449 kts 110°
2026-05-03 20:50 36.84367 26.64875 29039 ft 448 kts 110°
2026-05-03 20:50 36.83147 26.68428 28523 ft 446 kts 110°
2026-05-03 20:51 36.81926 26.71972 27922 ft 445 kts 110°
2026-05-03 20:51 36.80721 26.75466 27365 ft 441 kts 110°
2026-05-03 20:51 36.79518 26.78950 26848 ft 437 kts 110°
2026-05-03 20:51 36.78326 26.82402 26329 ft 432 kts 110°
2026-05-03 20:52 36.77148 26.85813 25813 ft 428 kts 110°
2026-05-03 20:52 36.75983 26.89187 25315 ft 423 kts 110°
2026-05-03 20:52 36.74823 26.92539 24810 ft 418 kts 110°
2026-05-03 20:52 36.73679 26.95844 24323 ft 413 kts 110°
2026-05-03 20:53 36.72553 26.99094 23834 ft 408 kts 110°
2026-05-03 20:53 36.71435 27.02315 23333 ft 403 kts 110°
2026-05-03 20:53 36.70343 27.05460 22826 ft 400 kts 109°
2026-05-03 20:53 36.69244 27.08624 22312 ft 396 kts 109°
2026-05-03 20:54 36.68153 27.11755 21804 ft 393 kts 109°
2026-05-03 20:54 36.65995 27.17928 20807 ft 388 kts 109°
2026-05-03 20:54 36.64911 27.21017 20304 ft 386 kts 109°
2026-05-03 20:55 36.63844 27.24062 19810 ft 384 kts 109°
2026-05-03 20:55 36.62793 27.27059 19324 ft 382 kts 109°
2026-05-03 20:55 36.61735 27.30075 18830 ft 381 kts 109°
2026-05-03 20:55 36.60675 27.33096 18342 ft 380 kts 108°
2026-05-03 20:56 36.59618 27.36102 17852 ft 379 kts 108°
2026-05-03 20:56 36.58565 27.39094 17374 ft 378 kts 109°
2026-05-03 20:56 36.57518 27.42065 16899 ft 375 kts 108°
2026-05-03 20:56 36.56479 27.45012 16430 ft 374 kts 108°
2026-05-03 20:57 36.55439 27.47961 15950 ft 373 kts 108°
2026-05-03 20:57 36.54400 27.50909 15467 ft 372 kts 108°
2026-05-03 20:57 36.53359 27.53852 14982 ft 372 kts 108°
2026-05-03 20:57 36.52322 27.56787 14495 ft 371 kts 108°
2026-05-03 20:58 36.51287 27.59710 14026 ft 370 kts 108°
2026-05-03 20:58 36.50253 27.62624 13550 ft 370 kts 108°
2026-05-03 20:58 36.49215 27.65549 13061 ft 369 kts 109°
2026-05-03 20:58 36.48184 27.68453 12580 ft 368 kts 109°
2026-05-03 20:59 36.47184 27.71336 12110 ft 365 kts 106°
2026-05-03 20:59 36.46415 27.74302 11642 ft 360 kts 99°
2026-05-03 20:59 36.45922 27.77309 11195 ft 354 kts 94°
2026-05-03 20:59 36.45525 27.80315 10774 ft 351 kts 94°
2026-05-03 21:00 36.45148 27.83271 10339 ft 348 kts 93°
2026-05-03 21:00 36.44891 27.85253 10050 ft 346 kts 94°
2026-05-03 21:00 36.44381 27.89152 9534 ft 340 kts 92°
2026-05-03 21:00 36.44325 27.92007 9276 ft 325 kts 81°
2026-05-03 21:01 36.44497 27.94761 9015 ft 314 kts 76°
2026-05-03 21:01 36.44969 27.97339 8760 ft 302 kts 67°
2026-05-03 21:01 36.45585 27.99790 8435 ft 291 kts 66°
2026-05-03 21:01 36.46199 28.02123 8053 ft 280 kts 65°
2026-05-03 21:02 36.46787 28.04369 7674 ft 269 kts 65°
2026-05-03 21:02 36.47349 28.06525 7300 ft 264 kts 65°
2026-05-03 21:02 36.47917 28.08715 6921 ft 262 kts 65°
2026-05-03 21:02 36.48474 28.10838 6547 ft 261 kts 65°
2026-05-03 21:03 36.49037 28.12977 6268 ft 258 kts 65°
2026-05-03 21:03 36.49589 28.15087 6019 ft 253 kts 65°
2026-05-03 21:03 36.50125 28.17133 5770 ft 250 kts 65°
2026-05-03 21:03 36.50660 28.19175 5516 ft 249 kts 65°
2026-05-03 21:04 36.51200 28.21221 5269 ft 250 kts 65°
2026-05-03 21:04 36.51748 28.23289 5010 ft 249 kts 65°
2026-05-03 21:04 36.52284 28.25304 4760 ft 247 kts 65°
2026-05-03 21:04 36.52811 28.27322 4507 ft 245 kts 69°
2026-05-03 21:05 36.52873 28.29461 4242 ft 256 kts 98°
2026-05-03 21:05 36.52052 28.31434 3987 ft 264 kts 129°
2026-05-03 21:05 36.50562 28.32732 3738 ft 262 kts 154°
2026-05-03 21:05 36.48848 28.33394 3474 ft 256 kts 179°
2026-05-03 21:06 36.47165 28.33020 3220 ft 243 kts 211°
2026-05-03 21:06 36.45956 28.31713 3020 ft 221 kts 247°
2026-05-03 21:06 36.45537 28.29973 2875 ft 206 kts 272°
2026-05-03 21:06 36.45481 28.28196 2738 ft 213 kts 276°
2026-05-03 21:07 36.45412 28.26322 2581 ft 213 kts 269°
2026-05-03 21:07 36.45116 28.24593 2392 ft 203 kts 258°
2026-05-03 21:07 36.44650 28.22975 2214 ft 190 kts 259°
2026-05-03 21:07 36.44253 28.21497 2048 ft 177 kts 261°
2026-05-03 21:08 36.43876 28.20058 1770 ft 173 kts 259°
2026-05-03 21:08 36.43486 28.18668 1463 ft 170 kts 258°
2026-05-03 21:08 36.43083 28.17308 1202 ft 165 kts 257°
2026-05-03 21:08 36.42698 28.16012 1020 ft 153 kts 257°
2026-05-03 21:09 36.42341 28.14804 800 ft 145 kts 257°
2026-05-03 21:09 36.42010 28.13674 610 ft 136 kts 257°
2026-05-03 21:09 36.41701 28.12597 420 ft 129 kts 256°
2026-05-03 21:09 36.41396 28.11564 258 ft 126 kts 256°
2026-05-03 21:10 36.41097 28.10545 106 ft 125 kts 256°
2026-05-03 21:10 36.40805 28.09558 33 ft 116 kts 253°
2026-05-03 21:10 36.40583 28.08778 32 ft 70 kts 250°
2026-05-03 21:10 36.40465 28.08378 31 ft 37 kts 251°
2026-05-03 21:11 36.40399 28.08150 31 ft 17 kts 250°
2026-05-03 21:11 36.40339 28.08019 31 ft 17 kts 224°
2026-05-03 21:11 36.40247 28.07923 31 ft 15 kts 219°
2026-05-03 21:11 36.40185 28.07869 31 ft 9 kts 190°
2026-05-03 21:12 36.40155 28.07938 30 ft 12 kts 81°
2026-05-03 21:12 36.40187 28.08051 29 ft 15 kts 69°
2026-05-03 21:12 36.40226 28.08179 28 ft 16 kts 70°
2026-05-03 21:12 36.40266 28.08317 29 ft 17 kts 70°
2026-05-03 21:13 36.40306 28.08456 30 ft 16 kts 70°
2026-05-03 21:13 36.40346 28.08591 31 ft 17 kts 70°
2026-05-03 21:13 36.40386 28.08730 31 ft 16 kts 72°
2026-05-03 21:13 36.40399 28.08857 31 ft 13 kts 94°
2026-05-03 21:14 36.40395 28.08962 31 ft 11 kts 88°
2026-05-03 21:14 36.40411 28.09050 31 ft 9 kts 70°
2026-05-03 21:14 36.40435 28.09133 31 ft 10 kts 70°
2026-05-03 21:14 36.40450 28.09185 31 ft 4 kts 78°
2026-05-03 21:15 36.40423 28.09216 31 ft 5 kts 162°
2026-05-03 21:15 36.40403 28.09224 31 ft 3 kts 161°
2026-05-03 21:15 36.40391 28.09229 31 ft 1 kts 161°
2026-05-03 21:15 36.40389 28.09230 31 ft 0 kts 161°